Regional Weather Roundup
Issued by NWS

Home | Current Version | Previous Version | Text Only | Print | Product List | Glossary Off
Versions: 1 2 3 4 5 6 7 8 9 10 11 12 13 14 15 16 17 18 19 20 21 22 23 24 25 26 27 28 29 30 31 32 33 34 35 36 37 38 39 40 41 42 43 44 45 46 47 48 49 50

000
ASUS43 KIND 082209
RWRIN

WEATHER ROUNDUP FOR INDIANA
NATIONAL WEATHER SERVICE INDIANAPOLIS IN
500 PM EST THU DEC 08 2016

NOTE: "FAIR" INDICATES FEW OR NO CLOUDS BELOW 12,000 FEET WITH NO
SIGNIFICANT WEATHER AND/OR OBSTRUCTIONS TO VISIBILITY.

* - STATION DOES NOT REPORT WEATHER SUCH AS PRECIPITATION OR FOG.

+ - STATION NOT QUALITY CONTROLLED BY THE NATIONAL WEATHER SERVICE.
    USE DATA WITH CAUTION...ESPECIALLY DEWPOINT AND RELATIVE
    HUMIDITY OBSERVATIONS.

INZ001>003-010>013-019-020-082300-
NORTHWEST INDIANA

CITY           SKY/WX    TMP DP  RH WIND       PRES   REMARKS
GARY /AIRPORT/ CLOUDY    23  14  68 W26       30.36R WCI   6
KNOX *+        CLOUDY    21  -4  33 W15       30.35R WCI   8
LA PORTE +     LGT SNOW  19  14  79 W10G18    30.33R WCI   8
MICHIGAN CITY+ FLURRIES  23  18  80 W8G22     30.33R WCI  14
MONTICELLO +   FLURRIES  20  10  65 W15G23    30.37R WCI   7
RENSSELAER +   FLURRIES  21  18  86 W13G22    30.38R WCI   9
VALPARAISO     CLOUDY    20  12  71 W15       30.34R WCI   6

$$

LMZ046-743>745-082300-
SOUTHERN LAKE MICHIGAN

STATION/POSITION TIME  TEMP    WIND        PRES    WAVE
                       AIR SEA DIR/SP/G            HT
                 (UTC) (F)     (DEG/KT/KT) (MB)    (FT)

$$

INZ004-005-014>016-021>024-082300-
NORTH CENTRAL INDIANA

CITY           SKY/WX    TMP DP  RH WIND       PRES   REMARKS
ELKHART        LGT SNOW  21  16  79 W16       30.28R WCI   7
GOSHEN         FLURRIES  20  12  71 W16G25    30.29R WCI   6
LOGANSPORT +   FLURRIES  21  14  73 W10G23    30.37R WCI  10
PERU/GRISSOM   FLURRIES  20  12  71 W20       30.33R WCI   5
ROCHESTER +    LGT SNOW  23  19  86 W12       30.35R WCI  12
SOUTH BEND     LGT SNOW  19  16  88 SW13      30.30R FOG     WCI   6
WARSAW +       FLURRIES  19  12  73 W16       30.32R WCI   5

$$

INZ006>009-017-018-025>027-082300-
NORTHEAST INDIANA

CITY           SKY/WX    TMP DP  RH WIND       PRES   REMARKS
ANGOLA *+      CLOUDY    19  16  86 W13       30.24R WCI   7
AUBURN +       LGT SNOW  21  14  73 W9        30.28S WCI  11
FORT WAYNE     FLURRIES  21  13  71 W20       30.31R WCI   6
HUNTINGTON +   FLURRIES  20  13  74 W9G16     30.33R WCI   9
KENDALLVILLE + LGT SNOW  20  14  78 W15G26    30.27R WCI   6

$$

INZ028-029-035-036-043>045-051>053-082300-
WEST CENTRAL INDIANA

CITY           SKY/WX    TMP DP  RH WIND       PRES   REMARKS
CRAWFORDSVL +  CLOUDY    20  14  76 W14G20    30.38R WCI   7
GREENCASTLE +  CLOUDY    23  16  74 W10G23    30.40R WCI  12
LAFAYETTE      CLOUDY    20  13  74 W15G25    30.39R WCI   6
TERRE HAUTE    CLOUDY    24  13  62 W14       30.44R WCI  12

$$

INZ030>032-037>040-046>048-054>057-064-065-082300-
CENTRAL INDIANA

CITY           SKY/WX    TMP DP  RH WIND       PRES   REMARKS
CP ATTERBURY + CLOUDY    25  14  63 W9G22     30.40R WCI  15
COLUMBUS       CLOUDY    25  18  74 W12G17    30.40R WCI  14
FISHERS *+     CLOUDY    21  18  86 W13G22    30.37R WCI   9
FRANKFORT +    CLOUDY    24  15  71 NW20G26   30.38R WCI   9
GREENWOOD *+   CLOUDY    24  15  70 W14G24    30.38R WCI  11
INDIANAPOLIS   FLURRIES  23  13  65 W15       30.38R WCI  10
-EAGLE CREEK   CLOUDY    23  14  68 W15G22    30.37R WCI  10
KOKOMO +       FLURRIES  20  14  77 W17       30.35R WCI   5
MARION +       FLURRIES  20  14  77 W20G26    30.35R WCI   5
MT COMFORT *+  CLOUDY    23  14  68 W15       30.36R WCI  10
SHELBYVILLE    CLOUDY    24  13  62 W13       30.36R WCI  12
ZIONSVILLE +   FLURRIES  21  14  74 W12       30.37R WCI  10

$$

INZ033-034-041-042-049-050-058-059-082300-
EAST CENTRAL INDIANA

CITY           SKY/WX    TMP DP  RH WIND       PRES   REMARKS
MUNCIE         CLOUDY    23  14  68 W16G24    30.33R WCI  10

$$

INZ060-061-067>069-081>083-085>088-082300-
SOUTHWEST INDIANA

CITY           SKY/WX    TMP DP  RH WIND       PRES   REMARKS
EVANSVILLE     MOCLDY    30  15  53 NW12G18   30.47R WCI  20
HUNTINGBURG *+ CLOUDY    28  17  63 NW10      30.45R WCI  19
WASHINGTON +   CLOUDY    26  18  72 NW10      30.46R WCI  16

$$

INZ062-063-066-070>080-084-089>092-082300-
SOUTH CENTRAL AND SOUTHEAST INDIANA

CITY           SKY/WX    TMP DP  RH WIND       PRES   REMARKS
BLOOMINGTON    CLOUDY    23  12  62 W13G21    30.40R WCI  11
MADISON *+     CLOUDY    28  14  54 W14       30.39R WCI  17
NORTH VERNON + CLOUDY    27  21  80 W12       30.38R WCI  16
SEYMOUR +      CLOUDY    28  14  54 W15G22    30.41R WCI  17

$$




USA.gov is the U.S. government's official web portal to all federal, state and local government web resources and services.